"2010-03-10 00:00:00",1748439,14.33,54.64,4.127,0.77,10.33,102.4398,5.526,6.84,24.27,0,110,13.39,6.30,16.6
"2010-03-10 00:00:30",1748440,13.13,57.36,5.162,1.04,10.46,102.4398,5.526,6.847,24.63,0,110,13.39,6.30,19.4
"2010-03-10 00:01:00",1748441,13.27,58.84,4.408,0.885,10.43,102.4398,5.526,6.84,24.93,0,110,13.39,6.30,20.8
"2010-03-10 00:01:30",1748442,14.13,57.57,4.377,0.748,10.55,102.4398,5.526,6.835,23.75,0,110,13.4,6.30,19.6
"2010-03-10 00:02:00",1748443,14.18,57.14,4.623,0.745,10.76,102.4401,5.527,6.816,23.64,0,110,13.4,6.30,19.1
"2010-03-10 00:02:30",1748444,13.72,59.68,4.759,0.64,10.87,102.4404,5.528,6.817,23.65,0,110,13.4,6.30,21.7
"2010-03-10 00:03:00",1748445,13.38,56.88,4.883,0.767,10.59,102.4416,5.531,6.837,24.05,0,110,13.4,6.30,18.9
"2010-03-10 00:03:30",1748446,13.93,54.54,4.746,0.622,10.54,102.4425,5.533,6.833,24.45,0,110,13.4,6.30,16.5
"2010-03-10 00:04:00",1748447,13.3,52.44,4.978,0.89,10.63,102.4456,5.541,6.817,24.76,0,110,13.4,6.31,14.4
"2010-03-10 00:04:30",1748448,15.19,51.98,4.3,1.173,10.79,102.4468,5.544,6.808,25.29,0,110,13.4,6.32,14.0
"2010-03-10 00:05:00",1748449,14.36,52.66,5.192,0.691,10.63,102.4497,5.552,6.824,26.12,0,110,13.4,6.32,14.7
"2010-03-10 00:05:30",1748450,13.93,50.55,4.716,0.674,10.7,102.4511,5.555,6.829,25.75,0,109.9,13.4,6.33,12.5
"2010-03-10 00:06:00",1748451,10.4,49.45,3.755,1.254,10.55,102.4537,5.562,6.824,26.17,0,109.9,13.4,6.33,11.5
"2010-03-10 00:06:30",1748452,10.4,56.77,4.363,0.996,10.46,102.4561,5.568,6.825,27.12,0,109.9,13.4,6.34,18.8
"2010-03-10 00:07:00",1748453,13.21,55.28,3.876,0.739,10.36,102.4587,5.575,6.804,27.17,0,110,13.4,6.35,17.3
"2010-03-10 00:07:30",1748454,13.43,49.16,4.386,0.786,10.38,102.4607,5.58,6.827,27.16,0,109.9,13.4,6.35,11.2
"2010-03-10 00:08:00",1748455,13.59,52.08,5.303,0.764,10.43,102.4611,5.581,6.806,27.04,0,109.9,13.4,6.35,14.1
"2010-03-10 00:08:30",1748456,13.5,56.05,3.747,0.592,10.47,102.4596,5.577,6.816,26.96,0,109.9,13.4,6.35,18.0
"2010-03-10 00:09:00",1748457,13.71,55.52,4.45,0.585,10.54,102.458,5.573,6.816,26.27,0,110,13.4,6.34,17.5
"2010-03-10 00:09:30",1748458,14.01,50.75,5.747,1.121,10.36,102.4592,5.576,6.82,26.63,0,109.9,13.4,6.35,12.8
"2010-03-10 00:10:00",1748459,14.33,52.33,5.226,0.815,10.08,102.4572,5.571,6.793,28.39,0,109.9,13.4,6.34,14.3
"2010-03-10 00:10:30",1748460,12.18,54.95,5.209,1.041,10.41,102.442,5.532,6.808,30.15,0,109.9,13.4,6.30,17.0
"2010-03-10 00:11:00",1748461,13.85,51.53,4.559,0.762,10.55,102.4384,5.523,6.799,26.84,0,109.9,13.4,6.29,13.5
"2010-03-10 00:11:30",1748462,13.18,52.21,4.807,0.951,10.28,102.4389,5.524,6.802,26.99,0,109.9,13.4,6.30,14.2
"2010-03-10 00:12:00",1748463,12.3,47.71,5.527,1.141,10.36,102.4395,5.526,6.782,27.85,0,109.9,13.4,6.30,9.7
"2010-03-10 00:12:30",1748464,11.83,51.4,4.082,0.702,10.48,102.4401,5.527,6.766,28.01,0,109.9,13.4,6.30,13.4
"2010-03-10 00:13:00",1748465,12.22,58.63,5.643,0.949,10.33,102.4353,5.515,6.764,27.82,0,109.9,13.4,6.29,20.6
"2010-03-10 00:13:30",1748466,13.98,59.22,4.806,1.191,10.22,102.4285,5.498,6.752,27.93,0,109.9,13.4,6.27,21.2
"2010-03-10 00:14:00",1748467,14.31,58.11,4.887,0.725,10.28,102.4201,5.476,6.752,29.95,0,109.9,13.4,6.25,20.1
"2010-03-10 00:14:30",1748468,13.06,57.46,7.249,0.648,10.41,102.4085,5.446,6.75,29.8,0,109.9,13.4,6.22,19.5
"2010-03-10 00:15:00",1748469,12.19,54.22,4.695,0.599,10.51,102.4068,5.442,6.723,27.38,0,110,13.4,6.21,16.2
"2010-03-10 00:15:30",1748470,12.28,56.85,4.392,0.728,10.49,102.4068,5.442,6.727,27.01,0,109.9,13.4,6.21,18.8
"2010-03-10 00:16:00",1748471,12.88,52.35,4.089,0.712,10.44,102.4068,5.442,6.707,26.63,0,109.9,13.4,6.21,14.3
"2010-03-10 00:16:30",1748472,12.28,55.78,3.484,0.643,10.48,102.4068,5.442,6.706,26.01,0,109.9,13.4,6.21,17.8
"2010-03-10 00:17:00",1748473,11.48,56.44,5.192,0.923,10.29,102.4068,5.442,6.694,26.16,0,109.9,13.4,6.21,18.4
"2010-03-10 00:17:30",1748474,12.9,53.03,5.257,0.626,10.37,102.4068,5.442,6.699,26.23,0,109.9,13.41,6.21,15.0
"2010-03-10 00:18:00",1748475,13.75,54.03,4.103,0.663,10.45,102.4068,5.442,6.702,24.57,0,109.9,13.41,6.21,16.0
"2010-03-10 00:18:30",1748476,13.62,56.28,4.19,0.494,10.66,102.4068,5.442,6.698,23.48,0,109.9,13.41,6.21,18.3
"2010-03-10 00:19:00",1748477,13.88,55.9,4.458,0.8,10.62,102.4068,5.442,6.689,24.28,0,109.9,13.41,6.21,17.9
"2010-03-10 00:19:30",1748478,14.21,57.59,5.377,0.649,10.68,102.4068,5.442,6.716,24.85,0,109.9,13.41,6.21,19.6
"2010-03-10 00:20:00",1748479,14.85,55.98,4.563,0.712,10.74,102.4068,5.442,6.72,24,0,109.9,13.41,6.21,18.0
"2010-03-10 00:20:30",1748480,14.67,60.25,4.392,0.915,10.8,102.4076,5.444,6.703,24.1,0,109.9,13.41,6.22,22.2
"2010-03-10 00:21:00",1748481,14.86,56.27,4.095,0.512,10.95,102.4175,5.469,6.708,23.76,0,109.9,13.41,6.24,18.3
"2010-03-10 00:21:30",1748482,14.44,57.63,4.638,0.614,10.77,102.4266,5.493,6.721,24.46,0,109.9,13.41,6.26,19.6
"2010-03-10 00:22:00",1748483,14.36,56.16,4.179,0.721,10.94,102.4302,5.502,6.727,23.47,0,109.9,13.41,6.27,18.2
"2010-03-10 00:22:30",1748484,14.35,55.36,4.324,0.795,10.91,102.4373,5.52,6.741,23.8,0,109.9,13.41,6.29,17.4
"2010-03-10 00:23:00",1748485,14.48,52.14,4.701,0.617,10.93,102.4393,5.525,6.726,23.19,0,110,13.41,6.30,14.1
"2010-03-10 00:23:30",1748486,12.84,58.35,4.975,0.587,10.79,102.4418,5.532,6.764,23.84,0,109.9,13.42,6.30,20.3
"2010-03-10 00:24:00",1748487,13.97,55.96,5.64,0.775,10.78,102.4421,5.532,6.757,23.91,0,109.9,13.42,6.30,18.0
"2010-03-10 00:24:30",1748488,13.29,60.49,4.311,0.736,10.78,102.4427,5.534,6.738,23.95,0,109.9,13.42,6.31,22.5
"2010-03-10 00:25:00",1748489,13.83,52.33,4.441,1.027,10.61,102.4444,5.538,6.765,24.31,0,109.9,13.42,6.31,14.3
"2010-03-10 00:25:30",1748490,13.44,46.6,4.697,0.751,10.71,102.4447,5.539,6.779,23.73,0,109.9,13.42,6.31,8.6
"2010-03-10 00:26:00",1748491,12.52,51.46,4.808,1.046,10.57,102.4465,5.543,6.759,23.53,0,109.9,13.42,6.31,13.5
"2010-03-10 00:26:30",1748492,12.98,53.53,4.163,0.693,10.68,102.4468,5.544,6.772,23.5,0,109.9,13.42,6.32,15.5
"2010-03-10 00:27:00",1748493,13,50.64,4.067,1.03,10.58,102.4485,5.549,6.767,24.19,0,109.9,13.42,6.32,12.6
"2010-03-10 00:27:30",1748494,11.34,44.66,4.027,1.777,10.51,102.4494,5.551,6.793,24.78,0,109.9,13.42,6.32,6.7
"2010-03-10 00:28:00",1748495,12.97,46.74,4.284,1.341,10.41,102.4494,5.551,6.778,25.66,0,109.9,13.42,6.32,8.7
"2010-03-10 00:28:30",1748496,12.42,46.45,4.26,1.138,10.56,102.4482,5.548,6.779,26.13,0,109.9,13.42,6.32,8.5
"2010-03-10 00:29:00",1748497,11.9,43.9,4.185,1.335,10.26,102.444,5.537,6.775,26.56,0,109.9,13.41,6.31,5.9
"2010-03-10 00:29:30",1748498,12.82,45.92,4.852,1.243,10.66,102.4387,5.524,6.785,27.25,0,109.9,13.41,6.29,7.9
"2010-03-10 00:30:00",1748499,13.36,49.1,3.492,0.777,10.3,102.4294,5.5,6.776,25.68,0,109.9,13.41,6.27,11.1
"2010-03-10 00:30:30",1748500,14.14,48.6,3.685,0.546,10.68,102.4221,5.481,6.752,23.08,0,109.9,13.41,6.25,10.6
"2010-03-10 00:31:00",1748501,14.09,47.89,4.354,0.902,10.53,102.4238,5.486,6.748,22.35,0,109.9,13.41,6.26,9.9
"2010-03-10 00:31:30",1748502,14.05,50.38,4.732,0.57,10.65,102.4279,5.496,6.759,22.42,0,109.9,13.41,6.27,12.4
"2010-03-10 00:32:00",1748503,14.11,46.83,3.92,0.754,10.65,102.4279,5.496,6.755,22.15,0,109.9,13.41,6.27,8.8
"2010-03-10 00:32:30",1748504,14.32,47.45,3.678,0.491,10.71,102.4293,5.5,6.739,21.86,0,109.9,13.41,6.27,9.5
"2010-03-10 00:33:00",1748505,14.37,46.01,4.375,0.859,10.82,102.4282,5.497,6.742,21.94,0,109.9,13.42,6.27,8.0
"2010-03-10 00:33:30",1748506,14.58,47.17,3.592,0.903,10.73,102.4325,5.508,6.767,23.02,0,109.9,13.42,6.28,9.2
"2010-03-10 00:34:00",1748507,13.46,45.61,3.918,0.948,10.66,102.4357,5.516,6.744,24.39,0,109.9,13.42,6.29,7.6
"2010-03-10 00:34:30",1748508,14.05,46.31,3.813,0.443,10.85,102.4357,5.516,6.732,23.03,0,109.9,13.42,6.29,8.3
"2010-03-10 00:35:00",1748509,13.54,47.01,4.006,0.647,10.72,102.4377,5.521,6.721,22.51,0,109.9,13.42,6.29,9.0
"2010-03-10 00:35:30",1748510,11.59,39.96,6.129,1.041,10.64,102.4409,5.529,6.749,22.86,0,109.9,13.42,6.30,2.0
"2010-03-10 00:36:00",1748511,9.92,38.57,4.325,0.714,10.55,102.4401,5.527,6.748,24.75,0,109.9,13.42,6.30,0.6
"2010-03-10 00:36:30",1748512,10.47,35.89,4.257,0.666,10.23,102.4395,5.526,6.741,27.21,0,109.9,13.42,6.30,357.9
"2010-03-10 00:37:00",1748513,10.24,36.68,4.167,0.705,9.95,102.4353,5.515,6.727,30.03,0,109.9,13.42,6.29,358.7
"2010-03-10 00:37:30",1748514,10.19,39.54,4.581,0.678,9.71,102.4104,5.451,6.725,30.6,0,109.9,13.42,6.22,1.5
"2010-03-10 00:38:00",1748515,9.48,33.92,6.165,1.341,8.52,102.4073,5.443,6.653,30.94,0,109.9,13.42,6.21,355.9
"2010-03-10 00:38:30",1748516,9.17,35.95,5.403,1.196,8.83,102.4073,5.443,6.521,31.04,0,109.9,13.43,6.21,358.0
"2010-03-10 00:39:00",1748517,8.12,28.55,4.805,0.853,5.989,102.3926,5.406,6.441,30.67,0,109.9,13.43,6.18,350.5
"2010-03-10 00:39:30",1748518,10.02,40.37,4.158,0.825,10.52,102.3754,5.362,6.666,29.56,0,109.9,13.43,6.13,2.4
"2010-03-10 00:40:00",1748519,9.54,41.18,2.352,0.847,10.6,102.3737,5.357,6.636,29.39,0,109.9,13.43,6.13,3.2
"2010-03-10 00:40:30",1748520,9.51,40.06,3.907,0.688,10.52,102.3644,5.334,6.627,29.73,0,109.9,13.43,6.10,2.1
"2010-03-10 00:41:00",1748521,9.46,33.77,6.729,1.087,9.31,102.3483,5.293,6.528,30.5,0,109.9,13.43,6.06,355.8
"2010-03-10 00:41:30",1748522,9.05,31.86,6.87,1.209,8.31,102.3398,5.271,6.502,31.64,0,109.9,13.43,6.04,353.9
"2010-03-10 00:42:00",1748523,9.69,36.93,4.756,1.088,9.35,102.3398,5.271,6.46,31.31,0,109.9,13.43,6.04,358.9
"2010-03-10 00:42:30",1748524,9.64,39.05,4.646,0.804,9.91,102.3395,5.27,6.51,31.63,0,109.9,13.43,6.04,1.0
"2010-03-10 00:43:00",1748525,9.19,36.66,6.601,1.093,9.13,102.3299,5.246,6.449,31.69,0,109.9,13.43,6.02,358.7
"2010-03-10 00:43:30",1748526,9.62,37.23,4.231,1.202,9.99,102.3118,5.199,6.541,32.02,0,109.9,13.43,5.97,359.2
"2010-03-10 00:44:00",1748527,9.29,34.28,5.831,1.681,9.07,102.3059,5.184,6.331,31.31,0,109.9,13.43,5.95,356.3
"2010-03-10 00:44:30",1748528,9.71,31.1,6.383,1.285,8.77,102.3059,5.184,6.422,31.79,0,109.9,13.43,5.95,353.1
"2010-03-10 00:45:00",1748529,11.09,37.49,4.518,1.084,10.64,102.3059,5.184,6.471,30.16,0,109.9,13.43,5.95,359.5
"2010-03-10 00:45:30",1748530,11.02,37.23,4.263,0.815,10.57,102.3059,5.184,6.472,29.43,0,109.9,13.43,5.95,359.2
"2010-03-10 00:46:00",1748531,10.06,38.65,3.071,0.96,10.69,102.3042,5.18,6.473,29.11,0,109.9,13.43,5.95,0.7
"2010-03-10 00:46:30",1748532,10.76,36.13,4.562,0.999,10.39,102.296,5.159,6.443,29.64,0,109.9,13.43,5.93,358.1
"2010-03-10 00:47:00",1748533,10.43,40.42,3.688,1.297,10,102.2875,5.137,6.42,29.83,0,109.9,13.43,5.91,2.4
"2010-03-10 00:47:30",1748534,8.48,33.81,5.772,1.263,7.277,102.2762,5.108,6.262,29.75,0,109.9,13.43,5.88,355.8
"2010-03-10 00:48:00",1748535,8.5,35.83,5.528,1.045,7.948,102.2725,5.099,6.281,29.55,0,109.9,13.43,5.87,357.8
"2010-03-10 00:48:30",1748536,7.28,28.06,2.653,0.628,6.16,102.272,5.098,6.216,29.62,0,109.9,13.43,5.87,350.1
"2010-03-10 00:49:00",1748537,9.9,39.27,3.366,0.996,10.57,102.272,5.098,6.399,29.72,0,109.9,13.43,5.87,1.3
"2010-03-10 00:49:30",1748538,10.92,36.37,3.463,0.85,10.89,102.272,5.098,6.398,29.9,0,109.9,13.43,5.87,358.4
"2010-03-10 00:50:00",1748539,11.46,33.8,3.616,0.724,10.74,102.272,5.098,6.411,30.92,0,109.9,13.43,5.87,355.8
"2010-03-10 00:50:30",1748540,10.8,33.12,4.418,0.8,10.31,102.272,5.098,6.399,32.23,0,109.9,13.44,5.87,355.1
"2010-03-10 00:51:00",1748541,10.77,34.38,3.118,1.014,10.17,102.272,5.098,6.401,32.74,0,109.9,13.44,5.87,356.4
"2010-03-10 00:51:30",1748542,10.46,35.59,4.587,0.78,9.77,102.272,5.098,6.396,32.22,0,109.9,13.44,5.87,357.6
"2010-03-10 00:52:00",1748543,9.9,33,4.144,1.196,9.62,102.272,5.098,6.412,31.64,0,109.9,13.44,5.87,355.0
"2010-03-10 00:52:30",1748544,9.1,31.84,4.683,1.098,9.51,102.272,5.098,6.403,32.59,0,109.9,13.44,5.87,353.8
"2010-03-10 00:53:00",1748545,9.35,35.23,4.732,0.925,9.41,102.2717,5.097,6.377,32.77,0,109.9,13.44,5.87,357.2
"2010-03-10 00:53:30",1748546,11.3,32.61,4.274,0.744,9.33,102.2663,5.083,6.383,33.23,0,109.9,13.44,5.85,354.6
"2010-03-10 00:54:00",1748547,12.21,33.24,3.005,0.969,9.06,102.2533,5.05,6.381,35.51,0,109.9,13.44,5.82,355.2
"2010-03-10 00:54:30",1748548,11.85,31.32,5.244,1.044,9.39,102.2406,5.018,6.336,35.24,0,109.9,13.44,5.79,353.3
"2010-03-10 00:55:00",1748549,11.53,27.26,5.832,1.016,8.65,102.238,5.011,6.268,33.8,0,109.9,13.44,5.78,349.3
"2010-03-10 00:55:30",1748550,10.39,32.68,6.044,1.281,9.07,102.238,5.011,6.255,32.86,0,109.9,13.44,5.78,354.7
"2010-03-10 00:56:00",1748551,10.92,31.01,3.902,0.935,9.62,102.238,5.011,6.322,31.69,0,109.9,13.44,5.78,353.0
"2010-03-10 00:56:30",1748552,10.77,31.64,3.303,0.877,9.73,102.2287,4.987,6.296,31.81,0,109.9,13.44,5.76,353.6
"2010-03-10 00:57:00",1748553,10.69,32.5,4.995,0.639,9.7,102.2166,4.956,6.312,31.92,0,109.9,13.44,5.73,354.5
"2010-03-10 00:57:30",1748554,10.87,33.13,4.148,0.745,9.52,102.2041,4.924,6.305,33.07,0,109.9,13.44,5.69,355.1
"2010-03-10 00:58:00",1748555,10.09,29.68,5.856,1.272,7.864,102.2041,4.924,6.142,33.08,0,109.9,13.44,5.69,351.7
"2010-03-10 00:58:30",1748556,9.99,28.46,6.538,1.352,7.636,102.2041,4.924,6.184,33.27,0,109.9,13.44,5.69,350.5
"2010-03-10 00:59:00",1748557,9.92,32.9,6.486,1.274,9.37,102.203,4.922,6.195,33.34,0,109.9,13.44,5.69,354.9
"2010-03-10 00:59:30",1748558,10.12,37.52,3.144,0.845,10.47,102.1807,4.865,6.251,33.01,0,109.9,13.44,5.63,359.5
"2010-03-10 01:00:00",1748559,9.83,38.05,2.294,0.852,10.05,102.1702,4.838,6.223,32.69,0,109.9,13.44,5.61,0.0
"2010-03-10 01:00:30",1748560,10.68,39.24,3.48,1.193,9.93,102.1702,4.838,6.2,32.6,0,109.9,13.44,5.61,1.2
"2010-03-10 01:01:00",1748561,10.34,32.82,4.816,0.982,9.55,102.1702,4.838,6.179,34.83,0,109.9,13.44,5.61,354.8
"2010-03-10 01:01:30",1748562,10.09,35.46,4.903,1.04,9.67,102.1682,4.833,6.183,32.99,0,109.9,13.44,5.60,357.5
"2010-03-10 01:02:00",1748563,8.96,25.31,5.865,0.859,6.403,102.1538,4.796,6.085,32.37,0,109.9,13.44,5.56,347.3
"2010-03-10 01:02:30",1748564,8.97,29.53,6.056,1.46,7.224,102.1394,4.759,5.92,32.95,0,109.9,13.43,5.53,351.5
"2010-03-10 01:03:00",1748565,9.32,31.99,6.303,1.386,8.25,102.1366,4.752,6.088,32.67,0,109.9,13.44,5.52,354.0
"2010-03-10 01:03:30",1748566,10.28,34.15,4.903,0.96,10.02,102.1366,4.752,6.105,32.86,0,109.9,13.44,5.52,356.1
"2010-03-10 01:04:00",1748567,10.13,34.26,4.559,1.005,10.02,102.1363,4.751,6.094,32.53,0,109.9,13.44,5.52,356.3
"2010-03-10 01:04:30",1748568,10.98,32.6,4.68,0.865,9.79,102.136,4.751,6.091,33.42,0,109.9,13.44,5.52,354.6
"2010-03-10 01:05:00",1748569,11.21,34.41,2.892,0.82,10.16,102.1324,4.741,6.097,33.13,0,109.9,13.44,5.51,356.4
"2010-03-10 01:05:30",1748570,10.37,35.43,4.298,0.982,10.1,102.1222,4.715,6.098,33.21,0,109.8,13.44,5.48,357.4
"2010-03-10 01:06:00",1748571,9.25,36.86,3.39,0.759,9.7,102.1194,4.708,6.078,33.84,0,109.9,13.45,5.48,358.9
"2010-03-10 01:06:30",1748572,9.58,35.23,4.512,0.957,9.32,102.1137,4.694,6.04,35.29,0,109.9,13.45,5.46,357.2
"2010-03-10 01:07:00",1748573,8.38,23.96,7.155,1.601,8.15,102.1067,4.676,6.005,37.27,0,109.8,13.45,5.44,346.0
"2010-03-10 01:07:30",1748574,7.317,19.89,4.153,0.992,5.68,102.1085,4.68,5.892,37.79,0,109.8,13.45,5.45,341.9
"2010-03-10 01:08:00",1748575,9.11,24.67,4.735,0.954,6.491,102.1099,4.684,5.744,36.13,0,109.8,13.45,5.45,346.7
"2010-03-10 01:08:30",1748576,9.72,29.93,5.608,1.397,8.83,102.1125,4.69,6.017,35.57,0,109.9,13.45,5.46,351.9
"2010-03-10 01:09:00",1748577,10.85,31.36,3.99,0.727,10.29,102.1123,4.69,6.027,36.31,0,109.8,13.45,5.46,353.4
"2010-03-10 01:09:30",1748578,11.06,33.46,3.763,0.744,10.51,102.1027,4.665,6.011,36.13,0,109.8,13.46,5.43,355.5
"2010-03-10 01:10:00",1748579,9.58,38.41,3.303,0.977,10.25,102.0962,4.649,5.978,34.19,0,109.8,13.45,5.42,0.4
"2010-03-10 01:10:30",1748580,8.68,37.64,3.826,0.822,10.22,102.0867,4.624,5.96,33.31,0,109.8,13.45,5.39,359.6
"2010-03-10 01:11:00",1748581,8.78,33.28,5.486,1.299,9.04,102.0887,4.63,5.926,32.88,0,109.8,13.45,5.40,355.3
"2010-03-10 01:11:30",1748582,7.79,28.13,5.44,1.107,6.099,102.087,4.625,5.691,32.96,0,109.8,13.45,5.39,350.1
"2010-03-10 01:12:00",1748583,9.69,31.14,7.066,1.208,7.863,102.089,4.63,5.86,33.47,0,109.8,13.46,5.40,353.1
"2010-03-10 01:12:30",1748584,9.89,32.96,4.984,1.133,9.68,102.0913,4.636,5.896,34.77,0,109.8,13.46,5.40,355.0
"2010-03-10 01:13:00",1748585,9.31,31.07,4.648,0.864,10.01,102.0907,4.635,5.932,35.55,0,109.8,13.46,5.40,353.1
"2010-03-10 01:13:30",1748586,9.03,31.32,3.88,0.859,9.94,102.0879,4.628,5.942,37.03,0,109.8,13.46,5.40,353.3
"2010-03-10 01:14:00",1748587,9.39,34.21,5.412,0.772,9.7,102.0804,4.608,5.897,36.96,0,109.8,13.46,5.38,356.2
"2010-03-10 01:14:30",1748588,9.3,34.03,5.334,1.596,8.61,102.0756,4.596,5.785,35.48,0,109.8,13.46,5.36,356.0
"2010-03-10 01:15:00",1748589,7.868,27.72,6.231,1.214,6.784,102.0691,4.58,5.783,35.74,0,109.8,13.46,5.35,349.7
"2010-03-10 01:15:30",1748590,8.29,31.07,6.198,1.169,8.4,102.0666,4.573,5.903,36.85,0,109.8,13.46,5.34,353.1
"2010-03-10 01:16:00",1748591,8.25,32.55,5.629,1.18,8.67,102.0652,4.57,5.776,37.11,0,109.8,13.46,5.34,354.5
"2010-03-10 01:16:30",1748592,8.09,33.25,5.585,1.107,9.11,102.0652,4.57,5.881,36.62,0,109.9,13.46,5.34,355.2
"2010-03-10 01:17:00",1748593,7.865,32.29,7.529,1.2,8.21,102.0672,4.575,5.75,36.58,0,109.8,13.46,5.34,354.3
"2010-03-10 01:17:30",1748594,8.03,35.12,5.595,1.067,8.87,102.055,4.544,5.766,36.27,0,109.9,13.46,5.31,357.1
"2010-03-10 01:18:00",1748595,7.731,34.56,5.773,1.259,8.55,102.0361,4.495,5.762,36.06,0,109.8,13.46,5.26,356.6
"2010-03-10 01:18:30",1748596,8.15,31.67,5.936,1.327,8.67,102.0344,4.491,5.777,36.95,0,109.8,13.46,5.26,353.7
"2010-03-10 01:19:00",1748597,8.13,31.68,6.069,1.321,8.31,102.035,4.493,5.702,37.39,0,109.8,13.45,5.26,353.7
"2010-03-10 01:19:30",1748598,8.98,35.16,4.347,0.84,9.51,102.0344,4.491,5.747,36.95,0,109.8,13.45,5.26,357.2
"2010-03-10 01:20:00",1748599,7.697,30.1,6.596,1.253,8.16,102.035,4.493,5.707,37,0,109.8,13.46,5.26,352.1
"2010-03-10 01:20:30",1748600,7.409,28.75,5.884,1.249,8.15,102.0347,4.492,5.704,37.64,0,109.8,13.46,5.26,350.8
"2010-03-10 01:21:00",1748601,8.77,32.64,5.495,1.104,8.91,102.0279,4.474,5.776,38.17,0,109.8,13.46,5.24,354.6
"2010-03-10 01:21:30",1748602,8.11,34.96,7.062,1.292,9.17,102.02,4.454,5.693,36.99,0,109.8,13.46,5.22,357.0
"2010-03-10 01:22:00",1748603,7.275,34.59,8.1,1.144,8.11,102.0064,4.42,5.672,36.13,0,109.8,13.46,5.19,356.6
"2010-03-10 01:22:30",1748604,6.519,30.55,6.055,1.252,6.596,102.0014,4.407,5.578,35.94,0,109.8,13.46,5.17,352.5
"2010-03-10 01:23:00",1748605,8.08,40.58,6.514,1.524,8.7,102.0014,4.407,5.655,35.31,0,109.8,13.46,5.17,2.6
"2010-03-10 01:23:30",1748606,9.07,44.47,6.289,1.348,8.73,102.0014,4.407,5.628,33.91,0,109.8,13.46,5.17,6.5
"2010-03-10 01:24:00",1748607,9.19,45.25,4.388,1.085,9.94,102.0014,4.407,5.705,34.11,0,109.7,13.46,5.17,7.2
"2010-03-10 01:24:30",1748608,9.97,49.07,3.715,0.613,9.94,102.0014,4.407,5.714,34.04,0,109.8,13.46,5.17,11.1
"2010-03-10 01:25:00",1748609,8.6,45.2,5.62,1.445,9.03,102.0014,4.407,5.65,33.56,0,109.8,13.46,5.17,7.2
"2010-03-10 01:25:30",1748610,7.988,40.49,5.72,1.086,7.084,102.0011,4.406,5.517,34.09,0,109.8,13.46,5.17,2.5
"2010-03-10 01:26:00",1748611,7.634,39.97,5.677,1.167,7.855,102.0014,4.407,5.613,34.14,0,109.8,13.47,5.17,2.0
"2010-03-10 01:26:30",1748612,8.32,42.73,5.138,1.033,9.28,102.0011,4.406,5.596,34.49,0,109.8,13.47,5.17,4.7
"2010-03-10 01:27:00",1748613,8.49,42.35,5.786,1.065,9.72,102.0014,4.407,5.663,33.99,0,109.8,13.47,5.17,4.3
"2010-03-10 01:27:30",1748614,9.16,46.95,4.171,0.934,10.26,102.0014,4.407,5.67,32.29,0,109.8,13.47,5.17,9.0
"2010-03-10 01:28:00",1748615,7.643,42.2,5.861,1.492,9.5,102.0014,4.407,5.661,32.61,0,109.8,13.47,5.17,4.2
"2010-03-10 01:28:30",1748616,5.196,31.05,4.793,1.018,5.432,102.0014,4.407,5.514,33.92,0,109.8,13.47,5.17,353.0
"2010-03-10 01:29:00",1748617,6.016,33.04,6.566,1.211,7.011,102.0014,4.407,5.432,34.47,0,109.8,13.47,5.17,355.0
"2010-03-10 01:29:30",1748618,5.67,28.98,5.717,1.114,6.809,102.0014,4.407,5.615,35.51,0,109.8,13.47,5.17,351.0
"2010-03-10 01:30:00",1748619,7.07,34.76,4.495,0.865,9.3,102.0014,4.407,5.615,37.31,0,109.8,13.47,5.17,356.8
"2010-03-10 01:30:30",1748620,7.7,34.28,4.265,0.859,9.87,102.0014,4.407,5.698,38.82,0,109.8,13.47,5.17,356.3
"2010-03-10 01:31:00",1748621,7.911,32.1,3.415,0.749,9.42,102.0014,4.407,5.67,38.54,0,109.8,13.47,5.17,354.1
"2010-03-10 01:31:30",1748622,7.25,25.21,6.309,1.372,6.486,102.0014,4.407,5.477,37.76,0,109.8,13.47,5.17,347.2
"2010-03-10 01:32:00",1748623,6.078,20.79,5.696,1.06,6.78,102.0014,4.407,5.522,37.57,0,109.8,13.47,5.17,342.8
"2010-03-10 01:32:30",1748624,5.05,8.34,7.969,0.989,5.029,102.0014,4.407,5.374,38.32,0,109.8,13.47,5.17,330.3
"2010-03-10 01:33:00",1748625,7.145,23.32,5.51,1.693,9.22,102.0002,4.404,5.688,38.45,0,109.8,13.47,5.17,345.3
"2010-03-10 01:33:30",1748626,8.12,29.62,2.695,1.025,9.64,101.9915,4.381,5.665,37.84,0,109.8,13.47,5.15,351.6
"2010-03-10 01:34:00",1748627,8.65,30.73,4.374,0.629,9.76,101.9844,4.363,5.667,37.11,0,109.8,13.47,5.13,352.7
"2010-03-10 01:34:30",1748628,6.787,25.28,7.021,1.558,7.584,101.9818,4.357,5.57,36.43,0,109.8,13.47,5.12,347.3
"2010-03-10 01:35:00",1748629,7.921,25.55,6.045,1.283,6.802,101.9711,4.329,5.486,36.43,0,109.8,13.47,5.10,347.5
"2010-03-10 01:35:30",1748630,6.848,25.46,3.967,0.64,5.545,101.9674,4.32,5.557,35.78,0,109.8,13.47,5.09,347.5
"2010-03-10 01:36:00",1748631,7.887,38.92,4.666,0.828,9.94,101.9674,4.32,5.624,34.72,0,109.8,13.47,5.09,0.9
"2010-03-10 01:36:30",1748632,7.386,41.74,4.579,0.982,9.98,101.9674,4.32,5.664,34.31,0,109.8,13.47,5.09,3.7
"2010-03-10 01:37:00",1748633,6.829,39.92,6.218,1.476,8.72,101.9674,4.32,5.61,35.09,0,109.8,13.47,5.09,1.9
"2010-03-10 01:37:30",1748634,5.706,33.41,6.32,1.179,6.376,101.9672,4.319,5.438,35.81,0,109.8,13.47,5.09,355.4
"2010-03-10 01:38:00",1748635,5.92,35.06,6.689,1.446,7.004,101.9612,4.304,5.491,36.4,0,109.8,13.47,5.07,357.1
"2010-03-10 01:38:30",1748636,5.159,30.52,1.629,0.67,4.971,101.9516,4.28,5.312,36.59,0,109.8,13.47,5.05,352.5
"2010-03-10 01:39:00",1748637,7.578,43.18,5.92,1.131,8.96,101.9394,4.249,5.596,36.54,0,109.8,13.47,5.02,5.2
"2010-03-10 01:39:30",1748638,8.26,45.24,4.517,0.796,10.05,101.9358,4.239,5.617,36.61,0,109.8,13.47,5.01,7.2
"2010-03-10 01:40:00",1748639,7.791,43.5,3.345,0.917,9.5,101.9335,4.233,5.565,35.85,0,109.8,13.48,5.00,5.5
"2010-03-10 01:40:30",1748640,6.64,39.23,6.184,1.232,7.889,101.9335,4.233,5.484,36.06,0,109.8,13.47,5.00,1.2
"2010-03-10 01:41:00",1748641,6.073,33.76,4.526,0.843,5.718,101.9335,4.233,5.425,35.96,0,109.8,13.51,5.00,355.8
"2010-03-10 01:41:30",1748642,8.05,43.56,5.118,1.077,8.75,101.9335,4.233,5.41,35.76,0,109.8,13.48,5.00,5.6
"2010-03-10 01:42:00",1748643,7.945,43.74,6.7,1.391,8.99,101.9335,4.233,5.552,36.72,0,109.8,13.48,5.00,5.7
"2010-03-10 01:42:30",1748644,8.32,44.88,5.158,0.981,9.37,101.9335,4.233,5.521,36.73,0,109.8,13.48,5.00,6.9
"2010-03-10 01:43:00",1748645,8.33,46.55,4.182,0.703,9.85,101.9332,4.233,5.55,36.93,0,109.8,13.48,5.00,8.5
"2010-03-10 01:43:30",1748646,7.778,43.3,5.902,1.196,8.07,101.9298,4.224,5.488,37.75,0,109.8,13.48,4.99,5.3
"2010-03-10 01:44:00",1748647,7.24,42.6,6.601,1.165,7.56,101.9208,4.201,5.36,38.1,0,109.8,13.48,4.97,4.6
"2010-03-10 01:44:30",1748648,6.7,37.91,5.355,1.093,5.725,101.9053,4.161,5.339,38.28,0,109.8,13.48,4.93,359.9
"2010-03-10 01:45:00",1748649,7.711,44.75,5.469,1.211,8.48,101.8999,4.148,5.454,38.35,0,109.8,13.48,4.91,6.8
"2010-03-10 01:45:30",1748650,7.049,42.37,4.844,1.122,8.47,101.8996,4.147,5.445,38.5,0,109.8,13.48,4.91,4.4
"2010-03-10 01:46:00",1748651,7.008,40.38,5.721,1.071,8.79,101.8996,4.147,5.445,38.11,0,109.8,13.48,4.91,2.4
"2010-03-10 01:46:30",1748652,7.765,41.63,5.888,1.161,8.3,101.8996,4.147,5.435,37.04,0,109.8,13.48,4.91,3.6
"2010-03-10 01:47:00",1748653,7.761,42.79,7.02,1.504,8.29,101.899,4.145,5.397,35.63,0,109.8,13.48,4.91,4.8
"2010-03-10 01:47:30",1748654,8.01,43.36,6.593,1.253,8.13,101.8934,4.131,5.346,33.58,0,109.8,13.48,4.90,5.4
"2010-03-10 01:48:00",1748655,8.05,43.2,6.282,1.404,8.56,101.8917,4.127,5.372,33.44,0,109.8,13.48,4.89,5.2
"2010-03-10 01:48:30",1748656,8.31,45.33,5.817,1.134,8.7,101.8934,4.131,5.429,34.48,0,109.8,13.48,4.90,7.3
"2010-03-10 01:49:00",1748657,7.55,40.8,6.297,1.369,8.71,101.8937,4.132,5.344,35.14,0,109.8,13.48,4.90,2.8